DECAYED

FENGYUN 1C DEB, 30951 (Decayed)

Orbit data source: Space-Track

FENGYUN 1C DEB, 30951 was space debris in SSO originally from a launch on Mon, 10 May 1999 UTC launched from the Taiyaun Space Center, China (TSC). Fengyun 1C debris stems from the Chinese weather satellite Fengyun-1C, which was intentionally destroyed by a Chinese anti-satellite missile in 2007. This event dramatically increased the amount of space debris, with thousands of trackable fragments posing hazards to satellites and human spaceflight. The Fengyun 1C debris cloud has become a focal point in discussions about space sustainability and the need for international regulations to prevent the creation of new debris.

Not visible in the next 10 days
Identifier
30951, 1999-025BAR
Orbit
Decayed
Country
Flag of CNCN / PRC
Related business
Manufacturer
Unknown
Mission
Decayed spacecraft
Bus & Motor
Unknown
Mass
Unknown
Launch date (UTC)
1999-05-10 (27 years ago)
Launch vehicle
Unknown
Launch site
Taiyaun Space Center, China (TSC)
Object type
Payload
Rocket body
Debris
Shape & HBR
Unknown shape, 0.1 m
Radar Cross Section
Small (<0.1 m²)

Expand to show TLE details & history
Last TLE update: 1 year ago

TLE from 1 year ago
0 FENGYUN 1C DEB
1 30951U 99025BAR 25107.92098537  .00986270  00000-0  82965-2 0  9995
2 30951  99.8240 275.2437 0031628 251.9159 107.8647 15.66804900961800
Epoch: 2025-04-17T22:06Z
TLE epoch observation values (Epoch: 2025-04-17T22:06:13.135Z)
Latitude
-0.00008°
Longitude
97.40303°
Altitude
377.733 km
Speed
7.679 km/s
True Right ascension
18h 20m 58s
True Declination
0° 00' 00"
Sunlit
Object was in full shadow at epoch
Visualization orbit readout
Latitude
Unknown
Longitude
Unknown
Altitude
Unknown
Speed
Unknown
Apparent Right ascension
Unknown
Apparent Declination
Unknown
Sunlit
N/A
Visualization observer readout
Local Sidereal Time
10:37:54
Azimuth
Unknown
Elevation
Unknown
Doppler factor
Unknown
Orbital elements
Apogee altitude
386.406 km
Perigee altitude
343.751 km
Semi-major axis
6,743.216 km
Eccentricity
0.00316
Inclination
99.824°
RAAN
275.2437°
Arg. of periapsis
251.9159°
True anomaly
108.20924°
Mean anomaly
107.8647°
Eccentric anomaly
108.03701°
Mean motion
3.91961 °/min
Orbital period
91.85 mins
BSTAR
0.0082965
Loading maneuver chart data...
Computing Atmospheric mass density...
Loading historical data...
Loading historical data...
Loading historical data...
Loading historical data...
Loading historical data...
Loading historical data...
Loading historical data...

Documentation

Showing up to 5 results
|